When you browse on this site, cookies collect data to enhance your experience and personalize the content and advertising you see.
Visit our Privacy Policy to learn more. By continuing to use the site, you agree to this use of cookies and data.
  • In Hungary
  • List of Countries
  • For 7 days
  • Water Temperature
  • Weather Map
  • News
  • Weather Widgets
  • user-avatar
    Login

    Hourly Weather Culemborg

    Today, 18 August, Sunday

    Time Temperature Precipitation Wind Pressure Humidity
    00:00 +16°C° 0 mm 2 mps 754 mmHg 90%
    01:00 +16°C° 0.2 mm 2 mps 754 mmHg 90%
    02:00 +16°C° 0.2 mm 3 mps 753 mmHg 91%
    03:00 +16°C° 0.2 mm 3 mps 753 mmHg 92%
    04:00 +16°C° 0.5 mm 3 mps 753 mmHg 93%
    05:00 +16°C° 0.5 mm 3 mps 753 mmHg 94%
    06:00 +16°C° 0 mm 3 mps 753 mmHg 93%
    07:00 +16°C° 0.6 mm 3 mps 753 mmHg 93%
    08:00 +16°C° 0.6 mm 3 mps 752 mmHg 93%
    09:00 +16°C° 0.6 mm 3 mps 752 mmHg 94%
    10:00 +17°C° 0.1 mm 3 mps 752 mmHg 91%
    11:00 +17°C° 0.1 mm 3 mps 752 mmHg 88%
    12:00 +18°C° 0.1 mm 3 mps 753 mmHg 85%
    13:00 +19°C° 0.1 mm 4 mps 753 mmHg 82%
    14:00 +20°C° 0.1 mm 4 mps 753 mmHg 78%
    15:00 +20°C° 0.1 mm 5 mps 754 mmHg 75%
    16:00 +20°C° 0 mm 5 mps 754 mmHg 76%
    17:00 +19°C° 0 mm 4 mps 754 mmHg 77%
    18:00 +19°C° 0 mm 4 mps 755 mmHg 79%
    19:00 +18°C° 0 mm 4 mps 755 mmHg 79%
    20:00 +17°C° 0 mm 4 mps 755 mmHg 80%
    21:00 +14°C° 0 mm 4 mps 756 mmHg 80%
    22:00 +14°C° 0 mm 4 mps 756 mmHg 81%
    23:00 +14°C° 0 mm 4 mps 757 mmHg 82%

    Tomorrow, 19 August, Monday

    Time Temperature Precipitation Wind Pressure Humidity
    00:00 +13°C° 0 mm 4 mps 757 mmHg 83%
    01:00 +13°C° 0 mm 4 mps 757 mmHg 85%
    02:00 +13°C° 0 mm 4 mps 757 mmHg 86%
    03:00 +13°C° 0 mm 4 mps 757 mmHg 87%
    04:00 +14°C° 0 mm 5 mps 758 mmHg 86%
    05:00 +14°C° 0 mm 5 mps 758 mmHg 84%
    06:00 +14°C° 0 mm 5 mps 759 mmHg 83%
    07:00 +16°C° 0.1 mm 6 mps 759 mmHg 78%
    08:00 +17°C° 0.1 mm 6 mps 759 mmHg 72%
    09:00 +18°C° 0.1 mm 7 mps 760 mmHg 67%
    10:00 +20°C° 0.1 mm 7 mps 760 mmHg 64%
    11:00 +20°C° 0.1 mm 7 mps 760 mmHg 60%
    12:00 +21°C° 0.1 mm 7 mps 761 mmHg 57%
    13:00 +21°C° 0 mm 6 mps 761 mmHg 56%
    14:00 +21°C° 0 mm 6 mps 761 mmHg 55%
    15:00 +21°C° 0 mm 5 mps 761 mmHg 53%
    16:00 +20°C° 0.1 mm 5 mps 761 mmHg 60%
    17:00 +19°C° 0.1 mm 4 mps 761 mmHg 67%
    18:00 +18°C° 0.1 mm 3 mps 761 mmHg 73%
    19:00 +17°C° 0 mm 3 mps 761 mmHg 76%
    20:00 +16°C° 0 mm 3 mps 762 mmHg 79%
    21:00 +15°C° 0 mm 2 mps 762 mmHg 82%
    22:00 +14°C° 0 mm 3 mps 762 mmHg 84%
    23:00 +13°C° 0 mm 3 mps 762 mmHg 86%

    Day after tomorrow, 20 August, Tuesday

    Time Temperature Precipitation Wind Pressure Humidity
    00:00 +13°C° 0 mm 4 mps 762 mmHg 88%
    01:00 +13°C° 0 mm 4 mps 762 mmHg 89%
    02:00 +13°C° 0 mm 4 mps 763 mmHg 90%
    03:00 +13°C° 0 mm 3 mps 763 mmHg 91%
    04:00 +13°C° 0 mm 3 mps 763 mmHg 89%
    05:00 +13°C° 0 mm 3 mps 763 mmHg 87%
    06:00 +14°C° 0 mm 3 mps 764 mmHg 85%
    07:00 +16°C° 0 mm 3 mps 764 mmHg 78%
    08:00 +18°C° 0 mm 3 mps 764 mmHg 71%
    09:00 +19°C° 0 mm 4 mps 765 mmHg 64%
    10:00 +20°C° 0.1 mm 4 mps 765 mmHg 60%
    11:00 +20°C° 0.1 mm 4 mps 765 mmHg 57%
    12:00 +21°C° 0.1 mm 4 mps 765 mmHg 53%
    13:00 +21°C° 0 mm 4 mps 766 mmHg 53%
    14:00 +21°C° 0 mm 4 mps 766 mmHg 53%
    15:00 +21°C° 0 mm 4 mps 766 mmHg 54%
    16:00 +19°C° 0 mm 4 mps 766 mmHg 59%
    17:00 +18°C° 0 mm 3 mps 766 mmHg 64%
    18:00 +17°C° 0 mm 3 mps 767 mmHg 69%
    19:00 +16°C° 0 mm 2 mps 767 mmHg 72%
    20:00 +15°C° 0 mm 2 mps 768 mmHg 74%
    21:00 +13°C° 0 mm 1 mps 768 mmHg 77%
    22:00 +13°C° 0 mm 1 mps 768 mmHg 78%
    23:00 +13°C° 0 mm 1 mps 768 mmHg 79%

    21 August, Wednesday

    Time Temperature Precipitation Wind Pressure Humidity
    00:00 +12°C° 0 mm 1 mps 768 mmHg 80%
    01:00 +12°C° 0 mm 1 mps 768 mmHg 81%
    02:00 +12°C° 0 mm 2 mps 769 mmHg 82%
    03:00 +12°C° 0 mm 2 mps 769 mmHg 83%
    04:00 +12°C° 0 mm 2 mps 769 mmHg 83%
    05:00 +13°C° 0 mm 2 mps 769 mmHg 84%
    06:00 +13°C° 0 mm 2 mps 769 mmHg 84%
    07:00 +15°C° 0 mm 2 mps 769 mmHg 78%
    08:00 +17°C° 0 mm 2 mps 770 mmHg 72%
    09:00 +18°C° 0 mm 2 mps 770 mmHg 65%
    10:00 +19°C° 0 mm 2 mps 769 mmHg 61%
    11:00 +20°C° 0 mm 2 mps 769 mmHg 56%
    12:00 +21°C° 0 mm 2 mps 769 mmHg 51%
    13:00 +22°C° 0 mm 1 mps 769 mmHg 50%
    14:00 +23°C° 0 mm 1 mps 769 mmHg 50%
    15:00 +23°C° 0 mm 1 mps 768 mmHg 49%
    16:00 +22°C° 0 mm 1 mps 768 mmHg 54%
    17:00 +21°C° 0 mm 1 mps 768 mmHg 59%
    18:00 +20°C° 0 mm 1 mps 768 mmHg 64%
    19:00 +19°C° 0 mm 1 mps 768 mmHg 66%
    20:00 +16°C° 0 mm 1 mps 768 mmHg 68%
    21:00 +15°C° 0 mm 1 mps 768 mmHg 70%
    22:00 +15°C° 0 mm 1 mps 768 mmHg 70%
    23:00 +15°C° 0 mm 2 mps 768 mmHg 70%

    22 August, Thursday

    Time Temperature Precipitation Wind Pressure Humidity
    00:00 +14°C° 0 mm 2 mps 768 mmHg 70%
    01:00 +14°C° 0 mm 2 mps 768 mmHg 69%
    02:00 +13°C° 0 mm 2 mps 768 mmHg 69%
    03:00 +13°C° 0 mm 2 mps 767 mmHg 69%
    04:00 +14°C° 0 mm 2 mps 767 mmHg 70%
    05:00 +14°C° 0 mm 2 mps 768 mmHg 71%
    06:00 +14°C° 0 mm 2 mps 768 mmHg 71%
    07:00 +16°C° 0 mm 2 mps 768 mmHg 68%
    08:00 +18°C° 0 mm 2 mps 768 mmHg 65%
    09:00 +20°C° 0 mm 2 mps 768 mmHg 61%
    10:00 +21°C° 0 mm 2 mps 768 mmHg 57%
    11:00 +23°C° 0 mm 2 mps 768 mmHg 53%
    12:00 +24°C° 0 mm 3 mps 768 mmHg 49%
    13:00 +24°C° 0 mm 3 mps 768 mmHg 48%
    14:00 +24°C° 0 mm 2 mps 768 mmHg 48%
    15:00 +24°C° 0 mm 2 mps 768 mmHg 48%
    16:00 +23°C° 0 mm 2 mps 768 mmHg 53%
    17:00 +20°C° 0 mm 2 mps 768 mmHg 58%
    18:00 +20°C° 0 mm 1 mps 768 mmHg 64%
    19:00 +17°C° 0 mm 2 mps 768 mmHg 69%
    20:00 +16°C° 0 mm 2 mps 768 mmHg 73%
    21:00 +15°C° 0 mm 2 mps 769 mmHg 78%
    22:00 +15°C° 0 mm 2 mps 769 mmHg 78%
    23:00 +14°C° 0 mm 2 mps 768 mmHg 79%

    23 August, Friday

    Time Temperature Precipitation Wind Pressure Humidity
    00:00 +14°C° 0 mm 2 mps 768 mmHg 80%
    01:00 +14°C° 0 mm 2 mps 768 mmHg 80%
    02:00 +14°C° 0 mm 1 mps 768 mmHg 80%
    03:00 +14°C° 0 mm 1 mps 768 mmHg 80%
    04:00 +14°C° 0 mm 1 mps 768 mmHg 80%
    05:00 +15°C° 0 mm 1 mps 768 mmHg 79%
    06:00 +15°C° 0 mm 1 mps 768 mmHg 78%
    07:00 +19°C° 0 mm 1 mps 768 mmHg 72%
    08:00 +20°C° 0 mm 2 mps 768 mmHg 66%
    09:00 +23°C° 0 mm 2 mps 768 mmHg 59%
    10:00 +24°C° 0 mm 2 mps 767 mmHg 56%
    11:00 +25°C° 0 mm 2 mps 767 mmHg 52%
    12:00 +27°C° 0 mm 2 mps 767 mmHg 49%
    13:00 +27°C° 0 mm 2 mps 766 mmHg 49%
    14:00 +27°C° 0 mm 2 mps 766 mmHg 49%
    15:00 +27°C° 0 mm 2 mps 766 mmHg 48%
    16:00 +26°C° 0 mm 2 mps 765 mmHg 54%
    17:00 +25°C° 0 mm 2 mps 765 mmHg 59%
    18:00 +23°C° 0 mm 2 mps 765 mmHg 64%
    19:00 +21°C° 0 mm 2 mps 765 mmHg 65%
    20:00 +20°C° 0 mm 2 mps 765 mmHg 65%
    21:00 +19°C° 0 mm 3 mps 765 mmHg 66%
    22:00 +19°C° 0 mm 2 mps 765 mmHg 67%
    23:00 +18°C° 0 mm 2 mps 765 mmHg 68%
    Show more